Home > Weather > Wiesbaden > Past weeks

Flag for Germany Weather for the Past 2 Weeks in Wiesbaden, Hesse, Germany

Now
59 °F

Passing clouds.


Feels Like: 58 °F
Forecast: 40 / 65 °F
Wind: 8 mph from East

Location: Wiesbaden Airport

Current Time: May 4, 2016 at 6:04:58 PM

Latest Report: May 4, 2016 at 4:58 PM


Visibility: N/A

Pressure: 30.34 "Hg

Humidity: 36%

Dew Point: 32 °F

Location of WiesbadenLocation

Historic Weather in Wiesbaden — Graph

°F

Wiesbaden Temperature Yesterday

Maximum temperature yesterday: 58 °F (at 5:58 PM)
Minimum temperature yesterday: 46 °F (at 2:58 AM)
Average temperature yesterday: 52 °F

High & Low Weather Summary for the Past Weeks

 TemperatureHumidityPressure
High68 °F (May 2, 4:58 PM)93% (Apr 25, 10:00 PM)30.46 "Hg (Apr 25, 10:00 PM)
Low31 °F (Apr 24, 6:58 AM)27% (Apr 20, 3:58 PM)29.58 "Hg (Apr 26, 1:03 AM)
Average48 °F64%30.04 "Hg
* Reported Apr 19 3:58 PM — May 4 3:58 PM, Wiesbaden, Weather by CustomWeather, © 2016

Note: Actual official high and low records may vary slightly from our data, if they occured in-between our weather recording intervals... More about our weather records

Advertising

Wiesbaden Weather History for the Previous 24 Hours

Scroll right to see more
 ConditionsComfort  
Time TempWeatherWind HumidityBarometerVisibility
3:58 PM
Wed, May 4
59 °FSunny.8 mph34%30.36 "HgN/A
2:58 PM59 °FSunny.12 mph42%30.37 "HgN/A
1:58 PM57 °FSunny.2 mph41%30.37 "HgN/A
12:58 PM55 °FPassing clouds.1 mph52%30.38 "HgN/A
11:58 AM55 °FPassing clouds.5 mph47%30.39 "HgN/A
10:58 AM54 °FSunny.6 mph51%30.40 "HgN/A
9:58 AM52 °FSunny.7 mph55%30.41 "HgN/A
8:58 AM49 °FSunny.No wind68%30.40 "HgN/A
7:58 AM45 °FSunny.1 mph71%30.40 "HgN/A
6:58 AM37 °FSunny.1 mph87%30.40 "HgN/A
5:58 AM42 °FClear.No wind73%30.37 "HgN/A
4:58 AM39 °FClear.No wind81%30.37 "HgN/A
3:58 AM43 °FClear.2 mph68%30.36 "HgN/A
2:58 AM43 °FClear.3 mph71%30.35 "HgN/A
1:58 AM41 °FClear.5 mph76%30.35 "HgN/A
12:58 AM45 °FClear.3 mph66%30.34 "HgN/A
11:58 PM
Tue, May 3
46 °FClear.3 mph62%30.33 "HgN/A
10:58 PM47 °FClear.5 mph59%30.31 "HgN/A
9:58 PM49 °FClear.5 mph55%30.29 "HgN/A
8:58 PM54 °FPassing clouds.8 mph44%30.25 "HgN/A
7:58 PM55 °FSunny.5 mph51%30.22 "HgN/A
6:58 PM57 °FScattered clouds.10 mph44%30.22 "HgN/A
Weather by CustomWeather, © 2016

See weather overviewHow to use our weather pages